Flag for Germany Weather past 2 weeks in Tuttlingen, Baden-Württemberg, Germany

Now
61 °F

Passing clouds.


Feels Like: 61 °F
Forecast: 55 / 79 °F
Wind: 2 mph from North

Location: Konstanz

Current Time: Aug 1, 2015 at 4:32:54 AM

Latest Report: Aug 1, 2015 at 4:00 AM


Visibility: 44 mi

Pressure: 29.89 "Hg (27.70 "Hg at 643m altitude)

Humidity: 65%

Dew point: 49 °F

Location of TuttlingenLocation

Historic Weather in Tuttlingen — Graph

°F

Tuttlingen temperature yesterday

Maximum temperature yesterday: 77 °F (at 4:00 PM)
Minimum temperature yesterday: 52 °F (at 7:00 AM)
Average temperature yesterday: 66 °F

Past Weeks' High & Low Weather Summary

 TemperatureHumidityPressure
High95 °F (Jul 22, 5:00 PM)97% (Jul 30, 7:00 AM)30.14 "Hg (Jul 30, 7:00 AM)
Low51 °F (Jul 30, 5:00 AM)22% (Jul 22, 5:00 PM)29.66 "Hg (Jul 24, 7:00 PM)
Average70 °F63%29.92 "Hg
* Reported Jul 17 3:00 AM — Aug 1 3:00 AM, Tuttlingen, Weather by CustomWeather, © 2015

Note: Actual official high and low records may vary slightly from our data, if they occured in-between our weather recording intervals... More about our weather records

Advertising

Tuttlingen weather history for previous 24 hours

 ConditionsComfort  
Time TempWeatherWind HumidityBarometerVisibility
3:00 AM
Sat, Aug 1
61 °FPassing clouds.1 mph66%29.90 "Hg37 mi
2:00 AM64 °FPassing clouds.2 mph60%29.89 "Hg43 mi
1:00 AM65 °FOvercast.1 mph53%29.90 "Hg43 mi
12:00 AM65 °FPassing clouds.1 mph51%29.90 "Hg43 mi
11:00 PM
Fri, Jul 31
68 °FClear.2 mph44%29.88 "Hg43 mi
10:00 PM68 °FClear.2 mph46%29.89 "Hg43 mi
9:00 PM70 °FOvercast.2 mph44%29.88 "Hg37 mi
8:00 PM72 °FOvercast.2 mph38%29.87 "Hg31 mi
7:00 PM74 °FOvercast.2 mph35%29.88 "Hg31 mi
6:00 PM76 °FPartly sunny.5 mph32%29.88 "Hg31 mi
5:00 PM77 °FPartly sunny.2 mph31%29.88 "Hg31 mi
4:00 PM77 °FScattered clouds.3 mph30%29.90 "Hg31 mi
3:00 PM74 °FScattered clouds.5 mph30%29.92 "Hg31 mi
2:00 PM73 °FScattered clouds.3 mph34%29.93 "Hg37 mi
1:00 PM73 °FScattered clouds.5 mph35%29.96 "Hg40 mi
12:00 PM70 °FPassing clouds.5 mph40%29.98 "Hg40 mi
11:00 AM67 °FPassing clouds.3 mph45%30.00 "Hg37 mi
10:00 AM64 °FPassing clouds.2 mph50%30.03 "Hg34 mi
9:00 AM61 °FPassing clouds.1 mph56%30.05 "Hg31 mi
8:00 AM58 °FPassing clouds.1 mph61%30.06 "Hg28 mi
7:00 AM52 °FPassing clouds.1 mph78%30.08 "Hg22 mi
5:00 AM54 °FClear.1 mph72%30.07 "Hg43 mi
4:00 AM55 °FPassing clouds.3 mph69%30.08 "Hg43 mi
Weather by CustomWeather, © 2015

See weather overviewHow to use our weather pages